Location: Unspecified
(41.1637°N, 24.2901°E)
Time: 13:26:25
(UTC+01:00)

ISS - Pass Details

Date: 27 November 2021
Orbit: 417 x 423 km, 51.6° (Epoch: 29 November)

Event Time Altitude Azimuth Distance (km) Brightness Sun altitude
Rises 17:03:10 0° 288° (WNW) 2,377 1.0 -12.5°
Reaches altitude 10° 17:05:55 10° 312° (NW) 1,513 -0.5 -13.0°
Maximum altitude 17:08:02 16° 351° (N) 1,222 -1.5 -13.3°
Enters shadow 17:09:33 12° 20° (NNE) 1,376 -1.5 -13.6°
